N0KTA-2 Weather Reports


Display with metric or nautical units.
time (UTC)temp
F
wind
direction
speed
MPH
gust
MPH
rain 1hr
in
rain 24hr
in
rain mn
in
humidity
%
barometer
mb
20260503180924 81 286 1.0 2.0 0.00 0.00 0.00 31 1008.8
20260503175925 81 280 2.0 3.0 0.00 0.00 0.00 31 1009.2
20260503174926 79 286 1.0 3.0 0.00 0.00 0.00 34 1009.3
20260503173924 78 280 1.0 1.0 0.00 0.00 0.00 38 1009.7
20260503172924 78 281 1.0 2.0 0.00 0.00 0.00 36 1009.8
20260503171924 77 281 1.0 3.0 0.00 0.00 0.00 38 1009.9
20260503170925 76 273 1.0 1.0 0.00 0.00 0.00 40 1010.1
20260503150925 65 276 1.0 2.0 0.00 0.00 0.00 56 1011.8
20260503130925 53 200 2.0 6.0 0.00 0.00 0.00 70 1012.6
20260503080923 52 189 1.0 3.0 0.00 0.00 0.00 61 1013.7
20260503072923 52 192 2.0 3.0 0.00 0.00 0.00 60 1014.0
20260503071924 53 187 2.0 2.0 0.00 0.00 0.00 59 1014.1
20260503070923 53 188 2.0 3.0 0.00 0.00 0.00 58 1014.1
20260503054925 53 185 1.0 1.0 0.00 0.05 0.00 54 1014.8
20260503053923 53 182 0.0 2.0 0.00 0.05 0.00 53 1014.9
20260503052924 53 179 1.0 3.0 0.00 0.05 0.00 53 1015.0
20260503051925 54 200 0.0 1.0 0.00 0.05 0.00 52 1014.8
20260503050924 54 194 0.0 0.0 0.00 0.05 0.00 53 1014.9
20260503045925 54 159 0.0 0.0 0.00 0.05 0.05 53 1015.1
20260503044924 55 200 0.0 1.0 0.00 0.05 0.05 51 1014.9
20260503043925 55 172 0.0 1.0 0.00 0.05 0.05 48 1014.8
20260503042924 55 191 1.0 2.0 0.00 0.05 0.05 50 1014.9
20260503041924 55 195 1.0 2.0 0.00 0.05 0.05 48 1014.8
20260503040924 55 193 1.0 1.0 0.00 0.05 0.05 48 1014.8
20260503035925 55 174 0.0 2.0 0.00 0.05 0.05 47 1014.9
20260503034923 55 182 0.0 1.0 0.00 0.05 0.05 49 1015.1
20260503033923 55 172 0.0 2.0 0.00 0.05 0.05 50 1015.1
20260503032925 56 136 0.0 0.0 0.00 0.05 0.05 52 1015.2
20260503031923 56 165 0.0 2.0 0.00 0.05 0.05 50 1015.1
20260503030924 56 167 0.0 0.0 0.00 0.05 0.05 48 1014.9
20260503025923 57 167 0.0 0.0 0.00 0.05 0.05 48 1015.1
20260503024924 57 157 0.0 0.0 0.00 0.05 0.05 47 1015.0
20260503023924 57 146 0.0 0.0 0.00 0.05 0.05 44 1015.0
20260503022925 57 152 0.0 0.0 0.00 0.05 0.05 46 1015.0
20260503021925 58 140 0.0 0.0 0.00 0.05 0.05 47 1014.9
20260503020925 59 163 0.0 2.0 0.00 0.05 0.05 52 1014.9
20260503015924 60 163 0.0 0.0 0.00 0.05 0.05 51 1015.0
20260503014925 61 163 0.0 0.0 0.00 0.05 0.05 48 1014.9
20260503013924 62 163 0.0 0.0 0.00 0.05 0.05 44 1014.9
20260503012925 64 163 0.0 0.0 0.00 0.05 0.05 45 1014.7
20260503011923 65 163 0.0 0.0 0.00 0.05 0.05 39 1014.8
20260503010924 67 163 0.0 0.0 0.00 0.05 0.05 34 1014.7
20260503005925 69 160 0.0 1.0 0.00 0.05 0.05 31 1014.8
20260503004923 70 165 0.0 0.0 0.00 0.05 0.05 30 1014.7
20260503003924 70 165 0.0 0.0 0.00 0.05 0.05 29 1014.7
20260503002923 70 196 1.0 2.0 0.00 0.05 0.05 27 1014.7
20260503001925 69 35 1.0 2.0 0.00 0.05 0.05 28 1014.9
20260503000923 69 108 0.0 1.0 0.00 0.05 0.05 29 1014.9
20260502235924 69 50 1.0 3.0 0.00 0.05 0.05 28 1015.3
20260502234924 69 184 1.0 2.0 0.00 0.05 0.05 27 1015.4
20260502233925 69 187 2.0 3.0 0.00 0.05 0.05 27 1015.4
20260502232924 68 197 1.0 2.0 0.00 0.05 0.05 26 1015.5
20260502231925 68 173 2.0 2.0 0.00 0.05 0.05 26 1015.5
20260502230924 69 11 0.0 1.0 0.00 0.05 0.05 27 1015.5
20260502225925 69 336 0.0 1.0 0.00 0.05 0.05 30 1015.5
20260502224924 69 227 1.0 2.0 0.00 0.05 0.05 29 1015.5
20260502223925 69 296 0.0 1.0 0.00 0.05 0.05 30 1015.5
20260502222924 69 275 0.0 1.0 0.00 0.05 0.05 31 1015.5
20260502221923 69 342 0.0 0.0 0.00 0.05 0.05 29 1015.7
20260502220924 69 31 1.0 2.0 0.00 0.05 0.05 30 1015.8
20260502215923 69 301 0.0 1.0 0.00 0.05 0.05 28 1015.9
20260502214924 68 217 1.0 1.0 0.00 0.05 0.05 30 1016.0
20260502213924 69 311 1.0 2.0 0.00 0.05 0.05 32 1016.0
20260502212924 68 289 1.0 2.0 0.00 0.05 0.05 32 1016.2
20260502211924 68 286 1.0 1.0 0.00 0.05 0.05 32 1016.5
20260502210924 68 286 0.0 2.0 0.00 0.05 0.05 34 1016.5
20260502205923 67 28 1.0 1.0 0.00 0.05 0.05 31 1016.7
20260502204924 67 230 3.0 3.0 0.00 0.05 0.05 31 1016.9
20260502203923 67 299 1.0 1.0 0.00 0.05 0.05 32 1017.0
20260502202924 67 286 1.0 1.0 0.00 0.05 0.05 33 1017.0
20260502201925 67 239 1.0 3.0 0.00 0.05 0.05 34 1017.1
20260502200924 67 282 2.0 2.0 0.00 0.05 0.05 32 1017.1
20260502195924 67 29 7.0 9.0 0.00 0.05 0.05 31 1017.0
20260502194924 67 16 5.0 7.0 0.00 0.05 0.05 33 1017.0
20260502193923 66 307 1.0 1.0 0.00 0.05 0.05 35 1017.1
20260502192924 66 269 1.0 1.0 0.00 0.05 0.05 34 1017.5
20260502191923 65 282 1.0 1.0 0.00 0.05 0.05 37 1017.5
20260502190924 66 339 1.0 5.0 0.00 0.05 0.05 35 1017.6
20260502185924 65 37 3.0 6.0 0.00 0.05 0.05 33 1017.7
20260502184923 65 350 0.0 1.0 0.00 0.05 0.05 36 1018.0
20260502183924 65 294 1.0 1.0 0.00 0.05 0.05 37 1018.1
20260502182923 64 343 0.0 1.0 0.00 0.05 0.05 38 1018.2
20260502181924 65 21 1.0 5.0 0.00 0.05 0.05 40 1018.2